This is the latest recevied weather packets stored in our database for station/object N7JP. If no packets are shown the sender has not sent any weather packets the latest 10 day(s).
| Time | Temp. | Humidity | Pressure | Rain* | Wind** | Luminosity | Snow |
|---|---|---|---|---|---|---|---|
| 1777877941 | 12.78° C | 81% | 1004 hPa | 0 mm | - | - | - |
| 1777877008 | 12.78° C | 84% | 1004.1 hPa | 0 mm | - | - | - |
| 1777876107 | 13.33° C | 82% | 1004.2 hPa | 0 mm | - | - | - |
| 1777875208 | 13.89° C | 77% | 1004.2 hPa | 0 mm | - | - | - |
| 1777874305 | 14.44° C | 75% | 1004.2 hPa | 0 mm | - | - | - |
| 1777873407 | 15° C | 74% | 1004.1 hPa | 0 mm | - | - | - |
| 1777872479 | 15.56° C | 69% | 1004.2 hPa | 0 mm | - | - | - |
| 1777871578 | 16.11° C | 69% | 1004.2 hPa | 0 mm | - | - | - |
| 1777870676 | 15.56° C | 69% | 1004.2 hPa | 0 mm | - | - | - |
| 1777869752 | 15.56° C | 68% | 1004.2 hPa | 0 mm | - | - | - |
| 1777868854 | 15.56° C | 70% | 1004.2 hPa | 0 mm | - | - | - |
| 1777867952 | 16.11° C | 69% | 1004.2 hPa | 0 mm | - | - | - |
| 1777867051 | 16.67° C | 67% | 1004.1 hPa | 0 mm | - | - | - |
| 1777866151 | 16.67° C | 66% | 1004 hPa | 0 mm | - | - | - |
| 1777865252 | 17.78° C | 63% | 1003.9 hPa | 0 mm | - | - | - |
| 1777864350 | 18.89° C | 62% | 1003.9 hPa | 0 mm | - | - | - |
| 1777863446 | 19.44° C | 56% | 1004.1 hPa | 0 mm | - | - | - |
| 1777862547 | 20.56° C | 54% | 1004.1 hPa | 0 mm | - | - | - |
| 1777861621 | 21.11° C | 48% | 1004.2 hPa | 0 mm | - | - | - |
| 1777860722 | 21.67° C | 51% | 1004.3 hPa | 0 mm | - | - | - |
| 1777859819 | 22.22° C | 51% | 1004.4 hPa | 0 mm | - | - | - |
| 1777858904 | 22.78° C | 45% | 1004.5 hPa | 0 mm | - | - | - |
| 1777858001 | 22.78° C | 42% | 1004.6 hPa | 0 mm | - | - | - |
| 1777857072 | 23.33° C | 42% | 1004.7 hPa | 0 mm | - | - | - |
| 1777856174 | 24.44° C | 44% | 1004.9 hPa | 0 mm | - | - | - |
* Rain latest hour (hover to see other rain measurements)
** Current wind speed in m/s (hover to see current wind gust speed)